﻿測定場所 (Monitoring sites),日付 (Measurement date),時間 (Measurement time),線量率 最大値 (max) μGy/h,線量率 最小値 (min) μGy/h,線量率 平均値 (average) μGy/h,
大田 (Ota),2024-05-05,05:01～06:00,0.0336,0.0298,0.0318,
大田 (Ota),2024-05-05,04:01～05:00,0.0338,0.0291,0.0317,
大田 (Ota),2024-05-05,03:01～04:00,0.0341,0.0297,0.0318,
大田 (Ota),2024-05-05,02:01～03:00,0.0338,0.0300,0.0319,
大田 (Ota),2024-05-05,01:01～02:00,0.0339,0.0301,0.0320,
大田 (Ota),2024-05-05,00:01～01:00,0.0343,0.0294,0.0318,
大田 (Ota),2024-05-04,23:01～24:00,0.0341,0.0299,0.0319,
大田 (Ota),2024-05-04,22:01～23:00,0.0353,0.0300,0.0318,
大田 (Ota),2024-05-04,21:01～22:00,0.0346,0.0296,0.0320,
大田 (Ota),2024-05-04,20:01～21:00,0.0353,0.0298,0.0320,
大田 (Ota),2024-05-04,19:01～20:00,0.0342,0.0297,0.0320,
大田 (Ota),2024-05-04,18:01～19:00,0.0343,0.0288,0.0319,
大田 (Ota),2024-05-04,17:01～18:00,0.0353,0.0301,0.0322,
大田 (Ota),2024-05-04,16:01～17:00,0.0352,0.0301,0.0322,
大田 (Ota),2024-05-04,15:01～16:00,0.0345,0.0286,0.0321,
大田 (Ota),2024-05-04,14:01～15:00,0.0344,0.0301,0.0322,
大田 (Ota),2024-05-04,13:01～14:00,0.0352,0.0300,0.0324,
大田 (Ota),2024-05-04,12:01～13:00,0.0343,0.0300,0.0323,
大田 (Ota),2024-05-04,11:01～12:00,0.0345,0.0303,0.0324,
大田 (Ota),2024-05-04,10:01～11:00,0.0344,0.0297,0.0323,
大田 (Ota),2024-05-04,09:01～10:00,0.0347,0.0297,0.0323,
大田 (Ota),2024-05-04,08:01～09:00,0.0338,0.0297,0.0319,
大田 (Ota),2024-05-04,07:01～08:00,0.0346,0.0297,0.0320,
大田 (Ota),2024-05-04,06:01～07:00,0.0350,0.0298,0.0320,
大田 (Ota),2024-05-04,05:01～06:00,0.0348,0.0300,0.0319,
大田 (Ota),2024-05-04,04:01～05:00,0.0339,0.0294,0.0320,
大田 (Ota),2024-05-04,03:01～04:00,0.0352,0.0294,0.0318,
大田 (Ota),2024-05-04,02:01～03:00,0.0346,0.0297,0.0316,
大田 (Ota),2024-05-04,01:01～02:00,0.0341,0.0299,0.0318,
大田 (Ota),2024-05-04,00:01～01:00,0.0344,0.0288,0.0319,
大田 (Ota),2024-05-03,23:01～24:00,0.0340,0.0301,0.0318,
大田 (Ota),2024-05-03,22:01～23:00,0.0343,0.0297,0.0318,
大田 (Ota),2024-05-03,21:01～22:00,0.0339,0.0288,0.0313,
大田 (Ota),2024-05-03,20:01～21:00,0.0340,0.0294,0.0314,
大田 (Ota),2024-05-03,19:01～20:00,0.0334,0.0295,0.0315,
大田 (Ota),2024-05-03,18:01～19:00,0.0338,0.0301,0.0315,
大田 (Ota),2024-05-03,17:01～18:00,0.0344,0.0301,0.0319,
大田 (Ota),2024-05-03,16:01～17:00,0.0338,0.0294,0.0315,
大田 (Ota),2024-05-03,15:01～16:00,0.0346,0.0306,0.0321,
大田 (Ota),2024-05-03,14:01～15:00,0.0347,0.0297,0.0321,
大田 (Ota),2024-05-03,13:01～14:00,0.0343,0.0303,0.0321,
大田 (Ota),2024-05-03,12:01～13:00,0.0341,0.0296,0.0319,
大田 (Ota),2024-05-03,11:01～12:00,0.0339,0.0294,0.0316,
大田 (Ota),2024-05-03,10:01～11:00,0.0342,0.0293,0.0317,
大田 (Ota),2024-05-03,09:01～10:00,0.0342,0.0294,0.0318,
大田 (Ota),2024-05-03,08:01～09:00,0.0342,0.0294,0.0320,
大田 (Ota),2024-05-03,07:01～08:00,0.0343,0.0294,0.0314,
大田 (Ota),2024-05-03,06:01～07:00,0.0344,0.0294,0.0318,
大田 (Ota),2024-05-03,05:01～06:00,0.0347,0.0294,0.0318,
大田 (Ota),2024-05-03,04:01～05:00,0.0337,0.0290,0.0315,
大田 (Ota),2024-05-03,03:01～04:00,0.0345,0.0291,0.0313,
大田 (Ota),2024-05-03,02:01～03:00,0.0344,0.0287,0.0316,
大田 (Ota),2024-05-03,01:01～02:00,0.0339,0.0283,0.0313,
大田 (Ota),2024-05-03,00:01～01:00,0.0341,0.0297,0.0315,
大田 (Ota),2024-05-02,23:01～24:00,0.0340,0.0288,0.0315,
大田 (Ota),2024-05-02,22:01～23:00,0.0343,0.0286,0.0312,
大田 (Ota),2024-05-02,21:01～22:00,0.0336,0.0290,0.0314,
大田 (Ota),2024-05-02,20:01～21:00,0.0335,0.0289,0.0314,
大田 (Ota),2024-05-02,19:01～20:00,0.0329,0.0290,0.0311,
大田 (Ota),2024-05-02,18:01～19:00,0.0336,0.0287,0.0312,
大田 (Ota),2024-05-02,17:01～18:00,0.0341,0.0291,0.0313,
大田 (Ota),2024-05-02,16:01～17:00,0.0335,0.0295,0.0316,
大田 (Ota),2024-05-02,15:01～16:00,0.0339,0.0294,0.0314,
大田 (Ota),2024-05-02,14:01～15:00,0.0344,0.0295,0.0317,
大田 (Ota),2024-05-02,13:01～14:00,0.0339,0.0293,0.0316,
大田 (Ota),2024-05-02,12:01～13:00,0.0339,0.0294,0.0318,
大田 (Ota),2024-05-02,11:01～12:00,0.0346,0.0299,0.0319,
大田 (Ota),2024-05-02,10:01～11:00,0.0343,0.0297,0.0317,
大田 (Ota),2024-05-02,09:01～10:00,0.0346,0.0296,0.0315,
大田 (Ota),2024-05-02,08:01～09:00,0.0348,0.0295,0.0317,
大田 (Ota),2024-05-02,07:01～08:00,0.0351,0.0299,0.0319,
大田 (Ota),2024-05-02,06:01～07:00,0.0347,0.0308,0.0327,
大田 (Ota),2024-05-02,05:01～06:00,0.0375,0.0323,0.0344,
大田 (Ota),2024-05-02,04:01～05:00,0.0383,0.0330,0.0354,
大田 (Ota),2024-05-02,03:01～04:00,0.0385,0.0327,0.0356,
大田 (Ota),2024-05-02,02:01～03:00,0.0443,0.0361,0.0395,
大田 (Ota),2024-05-02,01:01～02:00,0.0476,0.0410,0.0439,
大田 (Ota),2024-05-02,00:01～01:00,0.0513,0.0447,0.0478,
大田 (Ota),2024-05-01,23:01～24:00,0.0544,0.0474,0.0513,
大田 (Ota),2024-05-01,22:01～23:00,0.0543,0.0473,0.0504,
大田 (Ota),2024-05-01,21:01～22:00,0.0539,0.0478,0.0507,
大田 (Ota),2024-05-01,20:01～21:00,0.0566,0.0466,0.0510,
大田 (Ota),2024-05-01,19:01～20:00,0.0598,0.0516,0.0549,
大田 (Ota),2024-05-01,18:01～19:00,0.0565,0.0503,0.0534,
大田 (Ota),2024-05-01,17:01～18:00,0.0607,0.0513,0.0549,
大田 (Ota),2024-05-01,16:01～17:00,0.0627,0.0553,0.0587,
大田 (Ota),2024-05-01,15:01～16:00,0.0656,0.0589,0.0623,
大田 (Ota),2024-05-01,14:01～15:00,0.0656,0.0549,0.0602,
大田 (Ota),2024-05-01,13:01～14:00,0.0574,0.0459,0.0515,
大田 (Ota),2024-05-01,12:01～13:00,0.0535,0.0466,0.0498,
大田 (Ota),2024-05-01,11:01～12:00,0.0589,0.0479,0.0544,
大田 (Ota),2024-05-01,10:01～11:00,0.0516,0.0443,0.0483,
大田 (Ota),2024-05-01,09:01～10:00,0.0528,0.0309,0.0433,
大田 (Ota),2024-05-01,08:01～09:00,0.0363,0.0307,0.0333,
大田 (Ota),2024-05-01,07:01～08:00,0.0352,0.0304,0.0329,
大田 (Ota),2024-05-01,06:01～07:00,0.0349,0.0305,0.0326,
大田 (Ota),2024-05-01,05:01～06:00,0.0345,0.0305,0.0326,
大田 (Ota),2024-05-01,04:01～05:00,0.0347,0.0308,0.0326,
大田 (Ota),2024-05-01,03:01～04:00,0.0361,0.0304,0.0325,
大田 (Ota),2024-05-01,02:01～03:00,0.0349,0.0297,0.0324,
大田 (Ota),2024-05-01,01:01～02:00,0.0345,0.0304,0.0323,
大田 (Ota),2024-05-01,00:01～01:00,0.0343,0.0302,0.0324,
大田 (Ota),2024-04-30,23:01～24:00,0.0352,0.0303,0.0323,
大田 (Ota),2024-04-30,22:01～23:00,0.0345,0.0300,0.0321,
大田 (Ota),2024-04-30,21:01～22:00,0.0346,0.0294,0.0321,
大田 (Ota),2024-04-30,20:01～21:00,0.0348,0.0305,0.0324,
大田 (Ota),2024-04-30,19:01～20:00,0.0344,0.0290,0.0318,
大田 (Ota),2024-04-30,18:01～19:00,0.0352,0.0293,0.0320,
大田 (Ota),2024-04-30,17:01～18:00,0.0343,0.0300,0.0323,
大田 (Ota),2024-04-30,16:01～17:00,0.0359,0.0290,0.0322,
大田 (Ota),2024-04-30,15:01～16:00,0.0353,0.0295,0.0323,
大田 (Ota),2024-04-30,14:01～15:00,0.0346,0.0304,0.0323,
大田 (Ota),2024-04-30,13:01～14:00,0.0356,0.0308,0.0325,
大田 (Ota),2024-04-30,12:01～13:00,0.0343,0.0300,0.0324,
大田 (Ota),2024-04-30,11:01～12:00,0.0349,0.0294,0.0324,
大田 (Ota),2024-04-30,10:01～11:00,0.0349,0.0300,0.0323,
大田 (Ota),2024-04-30,09:01～10:00,0.0348,0.0300,0.0325,
大田 (Ota),2024-04-30,08:01～09:00,0.0374,0.0307,0.0329,
大田 (Ota),2024-04-30,07:01～08:00,0.0370,0.0312,0.0341,
大田 (Ota),2024-04-30,06:01～07:00,0.0375,0.0306,0.0342,
大田 (Ota),2024-04-30,05:01～06:00,0.0352,0.0305,0.0329,
大田 (Ota),2024-04-30,04:01～05:00,0.0352,0.0301,0.0325,
大田 (Ota),2024-04-30,03:01～04:00,0.0347,0.0309,0.0328,
大田 (Ota),2024-04-30,02:01～03:00,0.0373,0.0319,0.0341,
大田 (Ota),2024-04-30,01:01～02:00,0.0364,0.0310,0.0329,
大田 (Ota),2024-04-30,00:01～01:00,0.0345,0.0306,0.0327,
大田 (Ota),2024-04-29,23:01～24:00,0.0349,0.0300,0.0322,
大田 (Ota),2024-04-29,22:01～23:00,0.0346,0.0301,0.0321,
大田 (Ota),2024-04-29,21:01～22:00,0.0345,0.0302,0.0322,
大田 (Ota),2024-04-29,20:01～21:00,0.0349,0.0295,0.0324,
大田 (Ota),2024-04-29,19:01～20:00,0.0342,0.0297,0.0320,
大田 (Ota),2024-04-29,18:01～19:00,0.0347,0.0303,0.0322,
大田 (Ota),2024-04-29,17:01～18:00,0.0343,0.0295,0.0321,
大田 (Ota),2024-04-29,16:01～17:00,0.0343,0.0297,0.0321,
大田 (Ota),2024-04-29,15:01～16:00,0.0343,0.0308,0.0324,
大田 (Ota),2024-04-29,14:01～15:00,0.0344,0.0302,0.0321,
大田 (Ota),2024-04-29,13:01～14:00,0.0344,0.0298,0.0319,
大田 (Ota),2024-04-29,12:01～13:00,0.0343,0.0292,0.0322,
大田 (Ota),2024-04-29,11:01～12:00,0.0353,0.0307,0.0326,
大田 (Ota),2024-04-29,10:01～11:00,0.0353,0.0297,0.0328,
大田 (Ota),2024-04-29,09:01～10:00,0.0350,0.0299,0.0323,
大田 (Ota),2024-04-29,08:01～09:00,0.0343,0.0301,0.0323,
大田 (Ota),2024-04-29,07:01～08:00,0.0343,0.0305,0.0326,
大田 (Ota),2024-04-29,06:01～07:00,0.0351,0.0304,0.0327,
大田 (Ota),2024-04-29,05:01～06:00,0.0347,0.0300,0.0324,
大田 (Ota),2024-04-29,04:01～05:00,0.0343,0.0296,0.0319,
大田 (Ota),2024-04-29,03:01～04:00,0.0350,0.0293,0.0319,
大田 (Ota),2024-04-29,02:01～03:00,0.0339,0.0301,0.0319,
大田 (Ota),2024-04-29,01:01～02:00,0.0337,0.0297,0.0320,
大田 (Ota),2024-04-29,00:01～01:00,0.0339,0.0300,0.0321,
大田 (Ota),2024-04-28,23:01～24:00,0.0344,0.0283,0.0319,
大田 (Ota),2024-04-28,22:01～23:00,0.0338,0.0294,0.0319,
大田 (Ota),2024-04-28,21:01～22:00,0.0352,0.0297,0.0322,
大田 (Ota),2024-04-28,20:01～21:00,0.0350,0.0300,0.0322,
大田 (Ota),2024-04-28,19:01～20:00,0.0346,0.0285,0.0320,
大田 (Ota),2024-04-28,18:01～19:00,0.0355,0.0296,0.0322,
大田 (Ota),2024-04-28,17:01～18:00,0.0337,0.0290,0.0319,
大田 (Ota),2024-04-28,16:01～17:00,0.0346,0.0301,0.0326,
大田 (Ota),2024-04-28,15:01～16:00,0.0346,0.0297,0.0325,
大田 (Ota),2024-04-28,14:01～15:00,0.0356,0.0301,0.0324,
大田 (Ota),2024-04-28,13:01～14:00,0.0341,0.0296,0.0322,
大田 (Ota),2024-04-28,12:01～13:00,0.0342,0.0306,0.0326,
大田 (Ota),2024-04-28,11:01～12:00,0.0360,0.0309,0.0327,
大田 (Ota),2024-04-28,10:01～11:00,0.0344,0.0300,0.0322,
大田 (Ota),2024-04-28,09:01～10:00,0.0337,0.0301,0.0318,
大田 (Ota),2024-04-28,08:01～09:00,0.0344,0.0299,0.0323,
大田 (Ota),2024-04-28,07:01～08:00,0.0343,0.0288,0.0323,
大田 (Ota),2024-04-28,06:01～07:00,0.0339,0.0288,0.0318,
大田 (Ota),2024-04-28,05:01～06:00,0.0339,0.0295,0.0319,
大田 (Ota),2024-04-28,04:01～05:00,0.0340,0.0295,0.0317,
大田 (Ota),2024-04-28,03:01～04:00,0.0343,0.0295,0.0317,
大田 (Ota),2024-04-28,02:01～03:00,0.0336,0.0295,0.0316,
大田 (Ota),2024-04-28,01:01～02:00,0.0344,0.0294,0.0314,
大田 (Ota),2024-04-28,00:01～01:00,0.0349,0.0287,0.0316,
大田 (Ota),2024-04-27,23:01～24:00,0.0343,0.0287,0.0317,
大田 (Ota),2024-04-27,22:01～23:00,0.0347,0.0294,0.0322,
大田 (Ota),2024-04-27,21:01～22:00,0.0343,0.0295,0.0318,
大田 (Ota),2024-04-27,20:01～21:00,0.0346,0.0299,0.0319,
大田 (Ota),2024-04-27,19:01～20:00,0.0347,0.0298,0.0323,
大田 (Ota),2024-04-27,18:01～19:00,0.0349,0.0304,0.0323,
大田 (Ota),2024-04-27,17:01～18:00,0.0348,0.0298,0.0320,
大田 (Ota),2024-04-27,16:01～17:00,0.0345,0.0294,0.0319,
大田 (Ota),2024-04-27,15:01～16:00,0.0339,0.0301,0.0318,
大田 (Ota),2024-04-27,14:01～15:00,0.0342,0.0289,0.0319,
大田 (Ota),2024-04-27,13:01～14:00,0.0337,0.0295,0.0318,
大田 (Ota),2024-04-27,12:01～13:00,0.0353,0.0304,0.0322,
大田 (Ota),2024-04-27,11:01～12:00,0.0353,0.0303,0.0325,
大田 (Ota),2024-04-27,10:01～11:00,0.0381,0.0316,0.0343,
大田 (Ota),2024-04-27,09:01～10:00,0.0390,0.0336,0.0361,
大田 (Ota),2024-04-27,08:01～09:00,0.0400,0.0343,0.0368,
大田 (Ota),2024-04-27,07:01～08:00,0.0379,0.0328,0.0352,
大田 (Ota),2024-04-27,06:01～07:00,0.0360,0.0305,0.0329,
大田 (Ota),2024-04-27,05:01～06:00,0.0347,0.0306,0.0326,
大田 (Ota),2024-04-27,04:01～05:00,0.0360,0.0295,0.0320,
大田 (Ota),2024-04-27,03:01～04:00,0.0346,0.0300,0.0322,
大田 (Ota),2024-04-27,02:01～03:00,0.0347,0.0294,0.0324,
大田 (Ota),2024-04-27,01:01～02:00,0.0345,0.0304,0.0326,
大田 (Ota),2024-04-27,00:01～01:00,0.0357,0.0304,0.0324,
大田 (Ota),2024-04-26,23:01～24:00,0.0347,0.0294,0.0320,
大田 (Ota),2024-04-26,22:01～23:00,0.0343,0.0308,0.0325,
大田 (Ota),2024-04-26,21:01～22:00,0.0343,0.0301,0.0322,
大田 (Ota),2024-04-26,20:01～21:00,0.0351,0.0296,0.0320,
大田 (Ota),2024-04-26,19:01～20:00,0.0339,0.0283,0.0318,
大田 (Ota),2024-04-26,18:01～19:00,0.0348,0.0300,0.0321,
大田 (Ota),2024-04-26,17:01～18:00,0.0346,0.0291,0.0318,
大田 (Ota),2024-04-26,16:01～17:00,0.0341,0.0297,0.0319,
大田 (Ota),2024-04-26,15:01～16:00,0.0341,0.0291,0.0321,
大田 (Ota),2024-04-26,14:01～15:00,0.0343,0.0301,0.0321,
大田 (Ota),2024-04-26,13:01～14:00,0.0358,0.0301,0.0322,
大田 (Ota),2024-04-26,12:01～13:00,0.0341,0.0300,0.0322,
大田 (Ota),2024-04-26,11:01～12:00,0.0341,0.0300,0.0321,
大田 (Ota),2024-04-26,10:01～11:00,0.0346,0.0301,0.0323,
大田 (Ota),2024-04-26,09:01～10:00,0.0353,0.0294,0.0321,
大田 (Ota),2024-04-26,08:01～09:00,0.0346,0.0291,0.0322,
大田 (Ota),2024-04-26,07:01～08:00,0.0343,0.0306,0.0323,
大田 (Ota),2024-04-26,06:01～07:00,0.0339,0.0290,0.0320,
大田 (Ota),2024-04-26,05:01～06:00,0.0344,0.0290,0.0321,
大田 (Ota),2024-04-26,04:01～05:00,0.0337,0.0290,0.0318,
大田 (Ota),2024-04-26,03:01～04:00,0.0340,0.0306,0.0321,
大田 (Ota),2024-04-26,02:01～03:00,0.0345,0.0293,0.0319,
大田 (Ota),2024-04-26,01:01～02:00,0.0346,0.0289,0.0320,
大田 (Ota),2024-04-26,00:01～01:00,0.0346,0.0297,0.0319,
大田 (Ota),2024-04-25,23:01～24:00,0.0352,0.0301,0.0320,
大田 (Ota),2024-04-25,22:01～23:00,0.0343,0.0294,0.0321,
大田 (Ota),2024-04-25,21:01～22:00,0.0338,0.0299,0.0320,
大田 (Ota),2024-04-25,20:01～21:00,0.0341,0.0301,0.0318,
大田 (Ota),2024-04-25,19:01～20:00,0.0341,0.0287,0.0319,
大田 (Ota),2024-04-25,18:01～19:00,0.0346,0.0299,0.0317,
大田 (Ota),2024-04-25,17:01～18:00,0.0339,0.0293,0.0318,
大田 (Ota),2024-04-25,16:01～17:00,0.0345,0.0294,0.0320,
大田 (Ota),2024-04-25,15:01～16:00,0.0350,0.0301,0.0321,
大田 (Ota),2024-04-25,14:01～15:00,0.0336,0.0299,0.0320,
大田 (Ota),2024-04-25,13:01～14:00,0.0345,0.0293,0.0317,
大田 (Ota),2024-04-25,12:01～13:00,0.0348,0.0301,0.0319,
大田 (Ota),2024-04-25,11:01～12:00,0.0344,0.0297,0.0317,
大田 (Ota),2024-04-25,10:01～11:00,0.0345,0.0295,0.0316,
大田 (Ota),2024-04-25,09:01～10:00,0.0335,0.0295,0.0314,
大田 (Ota),2024-04-25,08:01～09:00,0.0339,0.0294,0.0314,
大田 (Ota),2024-04-25,07:01～08:00,0.0338,0.0294,0.0314,
大田 (Ota),2024-04-25,06:01～07:00,0.0333,0.0291,0.0312,
